Location: Bayshore Village Mobile Home Park
(26.6945°N, 81.8642°W)
Time: 00:39:09
(UTC+00:00)

Hubble Space Telescope - Pass Details

Date: 28 October 2021
Orbit: 535 x 538 km, 28.5° (Epoch: 28 November)

Event Time Altitude Azimuth Distance (km) Brightness Sun altitude
Rises 01:14:00 0° 258° (WSW) 2,661 5.3 -33.1°
Reaches altitude 10° 01:16:15 10° 258° (WSW) 1,771 4.2 -33.6°
Enters shadow 01:17:08 16° 258° (WSW) 1,432 3.6 -33.8°
